FW3015 Weather Reports


time (UTC)temp
C
wind
direction
speed
KPH
gust
KPH
rain 1hr
cm
rain 24hr
cm
rain mn
cm
humidity
%
barometer
mb
20260504231503 13 227 1.6 8.0 0.00 0.05 0.05 70 1005.4
20260504231003 13 228 1.6 8.0 0.00 0.05 0.05 70 1005.4
20260504230504 13 229 1.6 8.0 0.00 0.05 0.05 70 1005.4
20260504230003 13 230 1.6 8.0 0.00 0.05 0.05 69 1005.4
20260504225714 13 230 1.6 8.0 0.00 0.05 0.05 68 1005.4
20260504225003 13 215 3.2 14.5 0.00 0.05 0.05 66 1005.2
20260504224503 13 206 1.6 14.5 0.00 0.05 0.05 66 1005.1
20260504224003 14 214 1.6 11.3 0.00 0.05 0.05 66 1005.0
20260504223712 14 213 3.2 14.5 0.00 0.05 0.05 66 1005.1
20260504223003 14 207 3.2 14.5 0.00 0.05 0.05 64 1005.1
20260504222503 14 229 3.2 12.9 0.00 0.05 0.05 65 1005.1
20260504222003 15 264 1.6 11.3 0.00 0.05 0.05 64 1005.3
20260504221504 15 250 3.2 12.9 0.00 0.05 0.05 64 1005.2
20260504221003 15 243 3.2 12.9 0.00 0.05 0.05 63 1005.0
20260504220503 15 248 3.2 11.3 0.00 0.05 0.05 63 1005.0
20260504220003 15 252 3.2 9.7 0.00 0.05 0.05 63 1004.9
20260504215503 15 247 1.6 9.7 0.00 0.05 0.05 63 1004.9
20260504215003 15 228 3.2 14.5 0.00 0.05 0.05 63 1004.8
20260504214503 15 228 3.2 14.5 0.00 0.05 0.05 63 1004.9
20260504214003 15 236 4.8 12.9 0.00 0.05 0.05 63 1004.9
20260504213503 15 237 4.8 16.1 0.00 0.05 0.05 62 1004.8
20260504213004 15 239 4.8 16.1 0.00 0.05 0.05 62 1004.8
20260504212503 15 229 4.8 14.5 0.00 0.05 0.05 63 1004.8
20260504212213 15 230 4.8 14.5 0.00 0.05 0.05 62 1004.8
20260504211503 15 250 3.2 8.0 0.00 0.05 0.05 65 1004.7
20260504211004 15 254 3.2 14.5 0.00 0.05 0.05 64 1004.7
20260504210503 15 244 3.2 14.5 0.00 0.05 0.05 63 1004.8
20260504210004 16 233 3.2 11.3 0.00 0.05 0.05 64 1004.6
20260504205503 16 238 3.2 11.3 0.00 0.05 0.05 63 1004.5
20260504205003 16 255 4.8 12.9 0.00 0.05 0.05 63 1004.6
20260504204503 16 258 4.8 14.5 0.00 0.05 0.05 64 1004.8
20260504204003 15 248 6.4 16.1 0.00 0.05 0.05 65 1004.8
20260504203504 15 239 6.4 16.1 0.00 0.05 0.05 65 1004.6
20260504203003 15 230 6.4 17.7 0.00 0.08 0.05 66 1004.6
20260504202503 15 236 4.8 17.7 0.00 0.08 0.05 68 1004.6
20260504202003 15 246 4.8 14.5 0.00 0.08 0.05 69 1004.7
20260504201713 14 254 3.2 9.7 0.00 0.08 0.05 69 1004.6
20260504201003 14 260 3.2 16.1 0.00 0.08 0.05 70 1004.6
20260504200503 14 248 4.8 16.1 0.00 0.08 0.05 69 1004.5
20260504200003 14 242 4.8 16.1 0.00 0.08 0.05 69 1004.5
20260504195503 14 226 4.8 16.1 0.00 0.08 0.05 70 1004.7
20260504195003 14 225 4.8 14.5 0.00 0.08 0.05 70 1004.6
20260504194503 13 242 4.8 14.5 0.00 0.10 0.05 73 1004.6
20260504194003 13 224 4.8 14.5 0.00 0.10 0.05 74 1004.8
20260504193503 13 236 4.8 14.5 0.00 0.10 0.05 77 1004.7
20260504193003 12 254 3.2 14.5 0.03 0.10 0.05 76 1004.7
20260504192503 12 238 3.2 14.5 0.03 0.10 0.05 77 1004.9
20260504192003 12 224 4.8 14.5 0.03 0.10 0.05 78 1004.8
20260504191503 12 222 6.4 17.7 0.03 0.10 0.05 77 1004.9
20260504191003 12 220 4.8 17.7 0.05 0.13 0.05 77 1005.0
20260504190504 12 212 4.8 19.3 0.05 0.13 0.05 80 1005.1
20260504190003 12 208 6.4 19.3 0.05 0.13 0.05 79 1005.2
20260504185713 12 214 4.8 14.5 0.05 0.13 0.05 78 1005.3
20260504185003 12 242 3.2 16.1 0.05 0.15 0.05 78 1005.4
20260504184503 12 243 3.2 17.7 0.05 0.15 0.05 78 1005.5
20260504184003 12 243 3.2 17.7 0.05 0.15 0.05 76 1005.7
20260504183715 12 227 1.6 11.3 0.05 0.15 0.05 77 1005.8
20260504183003 12 232 1.6 11.3 0.03 0.15 0.03 76 1005.7
20260504182503 12 240 1.6 11.3 0.03 0.15 0.03 75 1005.7
20260504182003 12 247 1.6 9.7 0.03 0.18 0.03 74 1005.7
20260504181503 12 221 1.6 11.3 0.03 0.18 0.03 73 1005.6
20260504181213 12 225 3.2 11.3 0.00 0.18 0.00 71 1005.7
20260504180505 12 254 4.8 17.7 0.00 0.20 0.00 71 1005.4
20260504180004 12 246 4.8 17.7 0.00 0.20 0.00 69 1005.4
20260504175714 12 241 4.8 14.5 0.00 0.23 0.00 68 1005.4
20260504175004 12 239 4.8 19.3 0.00 0.25 0.00 68 1005.4
20260504174503 12 227 3.2 17.7 0.00 0.30 0.00 68 1005.4
20260504174004 12 258 3.2 17.7 0.00 0.33 0.00 70 1005.3
20260504173503 12 264 3.2 17.7 0.00 0.33 0.00 70 1005.3
20260504173003 12 227 3.2 17.7 0.00 0.36 0.00 69 1005.2
20260504172503 13 214 4.8 16.1 0.00 0.36 0.00 67 1004.9
20260504172003 13 228 4.8 17.7 0.00 0.38 0.00 65 1004.9
20260504171714 13 245 4.8 17.7 0.00 0.38 0.00 63 1004.9
20260504171003 13 257 6.4 17.7 0.00 0.41 0.00 59 1004.9
20260504170503 14 232 8.0 17.7 0.00 0.41 0.00 58 1004.8
20260504150503 14 218 8.0 20.9 0.00 0.71 0.00 52 1005.8
20260504141003 13 238 3.2 14.5 0.00 0.94 0.00 53 1006.1
20260504140503 13 301 3.2 12.9 0.00 0.94 0.00 53 1006.2
20260504130503 11 306 9.7 24.1 0.00 1.09 0.00 55 1006.8
20260504130215 11 310 9.7 19.3 0.00 1.09 0.00 56 1006.8
20260504120213 8 300 8.0 17.7 0.00 1.37 0.00 64 1007.2
20260504110503 6 293 3.2 12.9 0.00 1.68 0.00 78 1007.1
20260504110213 5 296 3.2 12.9 0.00 1.68 0.00 78 1007.0
20260504082003 2 288 3.2 12.9 0.00 2.18 0.00 85 1005.8
20260504081713 2 288 4.8 12.9 0.00 2.18 0.00 85 1005.9
20260504081003 2 289 3.2 11.3 0.00 2.21 0.00 85 1005.8
20260504080503 2 289 3.2 11.3 0.00 2.21 0.00 85 1005.8
20260504080213 2 291 3.2 14.5 0.00 2.24 0.00 85 1005.8
20260504050503 3 309 6.4 12.9 0.00 2.67 0.00 84 1004.4
20260504050003 3 316 6.4 12.9 0.00 2.67 0.00 83 1004.5
20260504045503 3 318 6.4 14.5 0.00 2.67 0.00 83 1004.4
20260504045003 3 315 4.8 14.5 0.00 2.67 0.00 82 1004.4
20260504044504 3 307 4.8 11.3 0.00 2.67 0.00 81 1004.3
20260504044003 4 309 6.4 22.5 0.00 2.69 0.00 80 1004.4
20260504043503 4 317 8.0 22.5 0.00 2.69 0.00 79 1004.3
20260504043003 4 317 6.4 14.5 0.00 2.69 0.00 79 1004.4
20260504042504 4 321 8.0 14.5 0.00 2.69 0.00 79 1004.3
20260504042003 4 328 6.4 14.5 0.00 2.69 0.00 78 1004.4
20260504041503 5 319 6.4 19.3 0.00 2.69 0.00 78 1004.3
20260504041003 5 315 8.0 19.3 0.00 2.69 0.00 77 1004.3
20260504040503 5 315 9.7 19.3 0.00 2.69 0.00 76 1004.1
20260504040004 5 316 11.3 20.9 0.00 2.69 0.00 74 1004.1
20260504035503 5 318 11.3 20.9 0.00 2.69 2.69 75 1004.1
20260504035004 5 317 11.3 20.9 0.00 2.69 2.69 75 1004.0
20260504034504 5 318 12.9 19.3 0.00 2.69 2.69 76 1004.0
20260504034003 5 319 11.3 19.3 0.00 2.69 2.69 76 1003.9
20260504033503 5 319 11.3 17.7 0.00 2.69 2.69 77 1003.9
20260504033003 5 319 11.3 20.9 0.00 2.69 2.69 76 1003.9
20260504032503 5 317 11.3 20.9 0.00 2.69 2.69 76 1003.8
20260504032214 5 316 11.3 20.9 0.00 2.69 2.69 76 1003.7
20260504031503 5 317 11.3 20.9 0.00 2.69 2.69 77 1003.7
20260504031214 5 318 11.3 25.7 0.00 2.69 2.69 77 1003.6
20260504030503 5 317 11.3 25.7 0.00 2.69 2.69 77 1003.6
20260504030003 5 316 9.7 19.3 0.00 2.69 2.69 77 1003.5
20260504025503 5 320 9.7 17.7 0.00 2.69 2.69 78 1003.5
20260504025003 5 319 9.7 19.3 0.00 2.69 2.69 78 1003.4
20260504024503 5 321 9.7 19.3 0.00 2.69 2.69 77 1003.5
20260504024004 5 324 9.7 19.3 0.00 2.69 2.69 77 1003.4
20260504023713 5 322 11.3 19.3 0.00 2.69 2.69 77 1003.5
20260504023214 5 322 11.3 22.5 0.00 2.69 2.69 76 1003.4
20260504022713 5 321 11.3 22.5 0.00 2.69 2.69 76 1003.4
20260504022004 6 323 12.9 22.5 0.00 2.69 2.69 76 1003.3
20260504021503 6 324 14.5 25.7 0.00 2.69 2.69 77 1003.4
20260504021003 6 323 14.5 25.7 0.00 2.69 2.69 77 1003.2
20260504020503 6 322 14.5 24.1 0.00 2.69 2.69 78 1003.2
20260504020003 6 323 14.5 27.4 0.00 2.69 2.69 79 1003.2
20260504015503 5 324 12.9 27.4 0.00 2.69 2.69 82 1003.1
20260504015003 5 321 12.9 24.1 0.00 2.69 2.69 83 1002.9
20260504014503 5 324 14.5 27.4 0.00 2.69 2.69 86 1002.9
20260504014003 5 329 12.9 27.4 0.00 2.69 2.69 90 1003.0
20260504013503 6 328 9.7 22.5 0.00 2.69 2.69 92 1002.9
20260504013003 6 324 8.0 19.3 0.00 2.69 2.69 92 1002.8
20260504012503 6 318 4.8 14.5 0.00 2.69 2.69 93 1002.8
20260504012003 6 315 4.8 11.3 0.00 2.69 2.69 93 1002.7
20260504011503 6 315 3.2 9.7 0.00 2.69 2.69 93 1002.7
20260504011003 6 315 3.2 9.7 0.00 2.69 2.69 93 1002.6
20260504010503 6 315 4.8 14.5 0.00 2.69 2.69 93 1002.6
20260504010003 6 317 6.4 14.5 0.00 2.69 2.69 93 1002.6
20260504005503 6 317 6.4 14.5 0.00 2.69 2.69 92 1002.4
20260504005004 6 315 6.4 14.5 0.00 2.69 2.69 92 1002.4
20260504004503 6 321 6.4 12.9 0.00 2.69 2.69 92 1002.4
20260504004213 6 326 6.4 14.5 0.00 2.69 2.69 92 1002.3
20260504003503 6 327 9.7 16.1 0.00 2.69 2.69 92 1002.2
20260504003213 6 326 9.7 16.1 0.00 2.69 2.69 92 1002.1
20260504002714 6 332 9.7 16.1 0.00 2.69 2.69 92 1001.9
20260504002003 6 335 12.9 20.9 0.00 2.69 2.69 92 1001.9
20260504001503 6 327 12.9 20.9 0.00 2.69 2.69 91 1001.8
20260504001003 6 329 11.3 17.7 0.00 2.69 2.69 91 1001.7
20260504000503 6 332 11.3 20.9 0.00 2.69 2.69 91 1001.8
20260504000004 6 330 12.9 20.9 0.00 2.69 2.69 91 1001.6
20260503235503 6 332 12.9 20.9 0.00 2.69 2.69 91 1001.6
20260503235003 6 340 14.5 22.5 0.00 2.69 2.69 91 1001.4
20260503234503 6 340 17.7 29.0 0.00 2.69 2.69 91 1001.4
20260503234003 6 343 19.3 29.0 0.00 2.69 2.69 91 1001.3
20260503233713 6 346 19.3 29.0 0.00 2.69 2.69 91 1001.2
20260503233003 6 346 19.3 27.4 0.00 2.69 2.69 91 1001.1
20260503232503 6 345 19.3 27.4 0.00 2.69 2.69 91 1001.1
20260503232003 6 346 20.9 29.0 0.00 2.69 2.69 91 1001.0